Location: Marstown
(39.5056°N, 77.0820°W)
Time: 21:25:05
(UTC-04:00)

ACS3 Solar Sail - Visible Passes

Search period start: 09 May 2026 00:00
Search period end: 19 May 2026 00:00
Orbit: 890 x 951 km, 97.2° (Epoch: 8 May)

Date Brightness Start Highest point End Pass type
(mag) Time Alt. Az. Time Alt. Az. Time Alt. Az.
9 May 2.4 01:33:08 10° NNE 01:38:07 46° ENE 01:38:07 46° ENE visible
9 May 3.0 03:16:12 10° NNW 03:20:54 25° WNW 03:21:36 24° WNW visible
10 May 2.1 01:41:43 10° NNE 01:46:58 56° ENE 01:46:58 56° ENE visible
10 May 3.2 03:25:10 10° NNW 03:29:27 21° WNW 03:30:27 20° WNW visible
11 May 1.9 01:50:20 10° NNE 01:55:48 67° ENE 01:55:48 67° ENE visible
11 May 3.4 03:34:14 10° NNW 03:38:00 18° WNW 03:39:18 16° WNW visible
12 May 4.0 00:20:28 10° ENE 00:21:10 11° ENE 00:21:10 11° ENE visible
12 May 1.7 01:58:59 10° NNE 02:04:39 79° NE 02:04:39 79° NE visible
12 May 3.6 03:43:26 10° NNW 03:46:32 15° WNW 03:48:08 13° WNW visible
13 May 3.9 00:27:50 10° ENE 00:30:01 13° E 00:30:01 13° E visible
13 May 1.7 02:07:40 10° N 02:13:30 79° NW 02:13:30 79° NW visible
13 May 3.8 03:52:53 10° NW 03:55:03 12° WNW 03:56:59 10° WNW visible
14 May 3.7 00:35:48 10° NE 00:38:51 17° E 00:38:51 17° E visible
14 May 1.7 02:16:23 10° N 02:22:21 68° WNW 02:22:21 68° WNW visible
15 May 3.5 00:43:58 10° NE 00:47:42 20° E 00:47:42 20° E visible
15 May 1.9 02:25:08 10° N 02:31:01 57° WNW 02:31:12 56° W visible
16 May 3.2 00:52:18 10° NE 00:56:33 24° E 00:56:33 24° E visible
16 May 2.1 02:33:55 10° N 02:39:39 47° WNW 02:40:02 47° W visible
17 May 3.0 01:00:42 10° NNE 01:05:24 29° E 01:05:24 29° E visible
17 May 2.4 02:42:44 10° N 02:48:16 40° WNW 02:48:53 39° W visible
18 May 2.7 01:09:10 10° NNE 01:14:15 35° E 01:14:15 35° E visible
18 May 2.6 02:51:35 10° N 02:56:53 33° WNW 02:57:44 32° W visible
